Regional Weather Roundup
Issued by NWS New Orleans/Baton Rouge, LA

Home | Current Version | Previous Version | Text Only | Print | Product List | Glossary Off
Versions: 1 2 3 4 5 6 7 8 9 10 11 12 13 14 15 16 17 18 19 20 21 22 23 24 25 26 27 28 29 30 31 32 33 34 35 36 37 38 39 40 41 42 43 44 45 46 47 48 49 50

912
ASUS44 KLIX 011910
RWRLIX
NEW ORLEANS REGIONAL WEATHER ROUNDUP
NATIONAL WEATHER SERVICE NEW ORLEANS LA
100 PM CST SUN MAR 01 2015

NOTE: "FAIR" INDICATES FEW OR NO CLOUDS BELOW 12,000 FEET WITH NO
      SIGNIFICANT WEATHER AND/OR OBSTRUCTIONS TO VISIBILITY.
      SKY/WX - SKY CONDITION AND SIGNIFICANT WEATHER.
      TMP - AIR TEMPERATURE.     DP    - DEWPOINT TEMPERATURE.
      RH  - RELATIVE HUMIDITY.   PRES  - PRESSURE.
      HI  - HEAT INDEX.          WCI   - WIND CHILL INDEX.

*  THESE STATIONS ARE NOT NWS OR FAA STATIONS AND ARE NOT UNDER
   NWS QUALITY CONTROL.

LAZ038-040-048-061>063-065>067-069-012000-
SOUTHEAST LOUISIANA

CITY           SKY/WX    TMP DP  RH WIND       PRES   REMARKS
N.O. AUDUBON     N/A     67  65  95 MISG        N/A
N.O. INTL ARPT CLOUDY    64  59  83 E7        30.27F HAZE
N.O. LAKEFRONT FOG       60  56  86 E10       30.28F VSB 1
SLIDELL        CLOUDY    61  58  90 E10       30.29F
BATON ROUGE    CLOUDY    64  59  83 E8        30.27F
BOOTHVILLE     CLOUDY    68  65  90 E10       30.27F
BELLE CHASSE   CLOUDY    67  62  84 E10       30.27F FOG
BOGALUSA*        N/A     65  57  75 SE8       30.31F
GALLIANO*      PTCLDY    76  66  71 MISG      30.26F
NEW ROADS*     CLOUDY    65  61  88 SE7       30.27F
GONZALES*      CLOUDY    61  61 100 NE6       30.26F FOG
HAMMOND*       CLOUDY    68  61  77 SE14      30.28F
HOUMA*         PTSUNNY   79  68  69 SE17      30.25F
PORT FOURCHON* PTCLDY    70  66  88 E10       30.28F FOG

$$

MSZ070-080>082-012000-
SOUTHERN MISSISSIPPI

CITY           SKY/WX    TMP DP  RH WIND       PRES   REMARKS
MCCOMB         CLOUDY    62  59  90 SE7       30.28F FOG
GULFPORT       CLOUDY    59  57  93 E8        30.30F FOG
BILOXI         CLOUDY    58  58 100 E8        30.30F FOG
PASCAGOULA     CLOUDY    58  55  90 E7        30.32F FOG
STENNIS ARPT*  CLOUDY    61  54  77 E8        30.31F

$$

COASTAL OBSERVATIONS
LAKE AND NEARSHORE STATIONS

STATION/POSITION TIME  TEMP    WIND        PRES    WAVE
                       AIR SEA DIR/SP/G            HT/PER
                 (UTC) (F)     (DEG/KT/KT) (MB)    (FT/S)
PASCAGOULA       1900   56      70/ 12/ 15 1026.2
WAVELAND YACHT   1900   57 53  110/ 14/ 17 1025.7
GRAND ISLE       1900   66 58   90/  6/  8 1025.2
SOUTHWEST PASS   1900   68 48   90/ 12/ 13 1025.5
NEW CANAL        1900   59      80/  5/ 10 1025.6
SHELL BEACH      1900   62 53  100/ 13/ 16 1025.1

OFFSHORE STATIONS

STATION/POSITION TIME  TEMP    WIND        PRES    WAVE
                       AIR SEA DIR/SP/G            HT/PER
                 (UTC) (F)     (DEG/KT/KT) (MB)    (FT/S)
64 S DAUPHIN ISL 1756   69 71  120/ 14/ 16 1026.1    5/ 7

$$




USA.gov is the U.S. government's official web portal to all federal, state and local government web resources and services.